H1 CPF 2 NER 2022 4 28 9 118 01 glonass132 H2 1401201 9132 39620 2022 4 28 0 0 0 2022 5 1 23 45 0 900 1 1 0 0 0 1 H9 10 0 59697 0.00000 0 4076533.692 -13576870.122 21231592.235 10 0 59697 900.00000 0 6137482.156 -15039982.273 19698379.164 10 0 59697 1800.00000 0 7911849.930 -16528217.001 17783668.654 10 0 59697 2700.00000 0 9373659.484 -17979826.828 15524635.982 10 0 59697 3600.00000 0 10509902.541 -19331047.825 12965082.220 10 0 59697 4500.00000 0 11320815.865 -20518777.707 10154590.371 10 0 59697 5400.00000 0 11819608.380 -21483244.369 7147572.862 10 0 59697 6300.00000 0 12031652.536 -22170554.233 4002227.978 10 0 59697 7200.00000 0 11993174.695 -22535014.544 779424.532 10 0 59697 8100.00000 0 11749500.047 -22541133.007 -2458464.629 10 0 59697 9000.00000 0 11352925.752 -22165211.200 -5648758.681 10 0 59697 9900.00000 0 10860311.487 -21396464.836 -8729672.028 10 0 59697 10800.00000 0 10330488.272 -20237623.268 -11641502.192 10 0 59697 11700.00000 0 9821594.138 -18704982.025 -14327780.004 10 0 59697 12600.00000 0 9388448.346 -16827904.701 -16736360.250 10 0 59697 13500.00000 0 9080074.489 -14647793.180 -18820432.048 10 0 59697 14400.00000 0 8937476.851 -12216567.185 -20539429.575 10 0 59697 15300.00000 0 8991764.066 -9594714.550 -21859825.448 10 0 59697 16200.00000 0 9262699.975 -6848991.463 -22755791.197 10 0 59697 17100.00000 0 9757743.951 -4049866.591 -23209711.576 10 0 59697 18000.00000 0 10471622.765 -1268814.076 -23212541.982 10 0 59697 18900.00000 0 11386453.938 1424433.145 -22764001.110 10 0 59697 19800.00000 0 12472417.521 3964556.077 -21872593.892 10 0 59697 20700.00000 0 13688950.005 6293137.360 -20555462.947 10 0 59697 21600.00000 0 14986411.934 8360860.225 -18838070.026 10 0 59697 22500.00000 0 16308160.395 10129326.543 -16753712.290 10 0 59697 23400.00000 0 17592939.847 11572417.494 -14342881.742 10 0 59697 24300.00000 0 18777490.696 12677139.414 -11652479.463 10 0 59697 25200.00000 0 19799265.103 13443919.135 -8734899.591 10 0 59697 26100.00000 0 20599134.309 13886336.439 -5647001.083 10 0 59697 27000.00000 0 21123971.664 14030305.495 -2448987.988 10 0 59697 27900.00000 0 21329000.497 13912740.890 796778.812 10 0 59697 28800.00000 0 21179805.886 13579766.115 4027013.607 10 0 59697 29700.00000 0 20653923.796 13084542.232 7178755.824 10 0 59697 30600.00000 0 19741939.357 12484810.804 10190611.843 10 0 59697 31500.00000 0 18448047.313 11840257.256 13003962.665 10 0 59697 32400.00000 0 16790050.963 11209808.348 15564112.665 10 0 59697 33300.00000 0 14798800.022 10648979.701 17821356.203 10 0 59697 34200.00000 0 12517091.896 10207386.635 19731941.007 10 0 59697 35100.00000 0 9998083.395 9926523.920 21258909.918 10 0 59697 36000.00000 0 7303280.350 9837907.908 22372805.520 10 0 59697 36900.00000 0 4500189.911 9961658.612 23052225.211 10 0 59697 37800.00000 0 1659733.785 10305580.178 23284217.582 10 0 59697 38700.00000 0 -1146470.128 10864776.994 23064514.143 10 0 59697 39600.00000 0 -3848845.319 11621820.054 22397593.559 10 0 59697 40500.00000 0 -6382501.131 12547455.269 21296578.680 10 0 59697 41400.00000 0 -8689676.163 13601823.000 19782969.505 10 0 59697 42300.00000 0 -10721881.243 14736137.079 17886218.048 10 0 59697 43200.00000 0 -12441655.466 15894752.821 15643153.713 10 0 59697 44100.00000 0 -13823864.704 17017537.656 13097270.212 10 0 59697 45000.00000 0 -14856490.829 18042445.634 10297887.494 10 0 59697 45900.00000 0 -15540880.815 18908188.790 7299204.229 10 0 59697 46800.00000 0 -15891446.949 19556894.291 4159258.274 10 0 59697 47700.00000 0 -15934831.845 19936636.789 938814.398 10 0 59697 48600.00000 0 -15708573.924 20003740.452 -2299800.235 10 0 59697 49500.00000 0 -15259329.576 19724754.395 -5493891.236 10 0 59697 50400.00000 0 -14640726.469 19078018.602 -8581600.445 10 0 59697 51300.00000 0 -13910937.811 18054754.098 -11503095.149 10 0 59697 52200.00000 0 -13130078.966 16659630.644 -14201720.707 10 0 59697 53100.00000 0 -12357535.334 14910786.714 -16625094.655 10 0 59697 54000.00000 0 -11649333.394 12839299.062 -18726121.542 10 0 59697 54900.00000 0 -11055665.254 10488121.828 -20463909.001 10 0 59697 55800.00000 0 -10618670.834 7910537.279 -21804567.298 10 0 59697 56700.00000 0 -10370571.415 5168180.417 -22721876.651 10 0 59697 57600.00000 0 -10332233.807 2328717.572 -23197808.971 10 0 59697 58500.00000 0 -10512226.724 -536726.183 -23222893.147 10 0 59697 59400.00000 0 -10906410.534 -3356285.320 -22796415.857 10 0 59697 60300.00000 0 -11498079.300 -6060105.769 -21926452.838 10 0 59697 61200.00000 0 -12258650.896 -8583016.449 -20629728.670 10 0 59697 62100.00000 0 -13148877.713 -10867009.241 -18931306.426 10 0 59697 63000.00000 0 -14120528.292 -12863423.795 -16864111.852 10 0 59697 63900.00000 0 -15118469.814 -14534745.313 -14468300.255 10 0 59697 64800.00000 0 -16083063.903 -15855939.586 -11790477.575 10 0 59697 65700.00000 0 -16952774.234 -16815268.836 -8882790.408 10 0 59697 66600.00000 0 -17666874.861 -17414553.836 -5801902.900 10 0 59697 67500.00000 0 -18168143.343 -17668871.498 -2607881.063 10 0 59697 68400.00000 0 -18405423.027 -17605701.372 636992.607 10 0 59697 69300.00000 0 -18335944.208 -17263558.232 3869449.517 10 0 59697 70200.00000 0 -17927304.254 -16690170.238 7026484.619 10 0 59697 71100.00000 0 -17159021.476 -15940281.692 10046599.199 10 0 59697 72000.00000 0 -16023596.071 -15073175.458 12871010.792 10 0 59697 72900.00000 0 -14527032.912 -14150021.963 15444805.379 10 0 59697 73800.00000 0 -12688804.063 -13231168.603 17718008.558 10 0 59697 74700.00000 0 -10541253.153 -12373485.430 19646554.456 10 0 59697 75600.00000 0 -8128467.253 -11627879.806 21193133.878 10 0 59697 76500.00000 0 -5504664.364 -11037084.865 22327906.032 10 0 59697 77400.00000 0 -2732164.674 -10633814.223 23029061.233 10 0 59697 78300.00000 0 120969.332 -10439359.419 23283225.298 10 0 59697 79200.00000 0 2983525.628 -10462687.354 23085699.501 10 0 59697 80100.00000 0 5783860.870 -10700073.906 22440533.098 10 0 59697 81000.00000 0 8452632.203 -11135287.267 21360428.562 10 0 59697 81900.00000 0 10925430.793 -11740311.794 19866482.516 10 0 59697 82800.00000 0 13145209.584 -12476580.826 17987768.196 10 0 59697 83700.00000 0 15064406.718 -13296666.049 15760767.931 10 0 59697 84600.00000 0 16646678.679 -14146352.309 13228666.552 10 0 59697 85500.00000 0 17868173.219 -14967011.049 10440519.108 10 0 59698 0.00000 0 18718291.103 -15698173.231 7450308.574 10 0 59698 900.00000 0 19199906.928 -16280194.862 4315909.304 10 0 59698 1800.00000 0 19329040.009 -16656903.038 1097979.463 10 0 59698 2700.00000 0 19133991.445 -16778113.365 -2141202.498 10 0 59698 3600.00000 0 18653982.629 -16601912.453 -5338931.769 10 0 59698 4500.00000 0 17937352.741 -16096610.097 -8433280.766 10 0 59698 5400.00000 0 17039390.419 -15242278.746 -11364289.611 10 0 59698 6300.00000 0 16019890.012 -14031814.757 -14075121.112 10 0 59698 7200.00000 0 14940534.384 -12471475.584 -16513158.293 10 0 59698 8100.00000 0 13862213.525 -10580868.600 -18631023.626 10 0 59698 9000.00000 0 12842391.058 -8392389.776 -20387500.429 10 0 59698 9900.00000 0 11932628.995 -5950133.334 -21748338.524 10 0 59698 10800.00000 0 11176374.693 -3308315.312 -22686928.379 10 0 59698 11700.00000 0 10607103.297 -529274.292 -23184830.244 10 0 59698 12600.00000 0 10246894.448 2318869.592 -23232147.276 10 0 59698 13500.00000 0 10105504.028 5164801.850 -22827734.514 10 0 59698 14400.00000 0 10179971.221 7936740.791 -21979238.480 10 0 59698 15300.00000 0 10454778.791 10565191.928 -20702965.304 10 0 59698 16200.00000 0 10902561.149 12985615.337 -19023578.591 10 0 59698 17100.00000 0 11485331.547 15140894.670 -16973631.501 10 0 59698 18000.00000 0 12156177.443 16983504.192 -14592941.087 10 0 59698 18900.00000 0 12861352.805 18477282.608 -11927816.188 10 0 59698 19800.00000 0 13542678.758 19598738.664 -9030153.512 10 0 59698 20700.00000 0 14140150.248 20337833.129 -5956419.661 10 0 59698 21600.00000 0 14594637.124 20698204.130 -2766539.560 10 0 59698 22500.00000 0 14850563.598 20696826.581 477285.983 10 0 59698 23400.00000 0 14858450.693 20363120.844 3711808.927 10 0 59698 24300.00000 0 14577212.130 19737549.557 6873983.214 10 0 59698 25200.00000 0 13976104.741 18869763.633 9902208.412 10 0 59698 26100.00000 0 13036249.555 17816377.770 12737541.791 10 0 59698 27000.00000 0 11751658.432 16638471.524 15324853.881 10 0 59698 27900.00000 0 10129722.521 15398923.379 17613904.159 10 0 59698 28800.00000 0 8191142.086 14159691.849 19560315.481 10 0 59698 29700.00000 0 5969301.120 12979159.194 21126428.595 10 0 59698 30600.00000 0 3509113.538 11909649.887 22282020.948 10 0 59698 31500.00000 0 865390.023 10995227.813 23004876.997 10 0 59698 32400.00000 0 -1899205.851 10269863.667 23281200.592 10 0 59698 33300.00000 0 -4716526.841 9756047.836 23105863.120 10 0 59698 34200.00000 0 -7515538.187 9463905.022 22482484.295 10 0 59698 35100.00000 0 -10225033.561 9390845.600 21423345.561 10 0 59698 36000.00000 0 -12776359.213 9521766.300 19949138.981 10 0 59698 36900.00000 0 -15106034.798 9829790.084 18088557.327 10 0 59698 37800.00000 0 -17158163.956 10277512.839 15877733.704 10 0 59698 38700.00000 0 -18886536.651 10818703.805 13359541.528 10 0 59698 39600.00000 0 -20256337.799 11400388.026 10582768.109 10 0 59698 40500.00000 0 -21245393.096 11965223.537 7601177.155 10 0 59698 41400.00000 0 -21844901.724 12454073.844 4472477.469 10 0 59698 42300.00000 0 -22059626.625 12808668.239 1257216.929 10 0 59698 43200.00000 0 -21907535.267 12974238.752 -1982377.846 10 0 59698 44100.00000 0 -21418906.325 12902023.356 -5183594.683 10 0 59698 45000.00000 0 -20634939.661 12551530.417 -8284439.539 10 0 59698 45900.00000 0 -19605927.513 11892469.036 -11224828.200 10 0 59698 46800.00000 0 -18389062.937 10906263.501 -13947743.564 10 0 59698 47700.00000 0 -17045976.634 9587087.168 -16400336.534 10 0 59698 48600.00000 0 -15640104.676 7942370.746 -18534949.586 10 0 59698 49500.00000 0 -14233996.743 5992761.574 -20310043.436 10 0 59698 50400.00000 0 -12886677.196 3771533.230 -21691008.772 10 0 59698 51300.00000 0 -11651169.310 1323467.512 -22650847.198 10 0 59698 52200.00000 0 -10572286.404 -1296747.262 -23170707.766 10 0 59698 53100.00000 0 -9684782.828 -4026537.271 -23240267.950 10 0 59698 54000.00000 0 -9011942.948 -6797801.592 -22857950.796 10 0 59698 54900.00000 0 -8564668.176 -9539511.566 -22030972.875 10 0 59698 55800.00000 0 -8341101.420 -12180444.041 -20775220.777 10 0 59698 56700.00000 0 -8326805.774 -14651935.303 -19114957.203 10 0 59698 57600.00000 0 -8495490.831 -16890540.997 -17082361.008 10 0 59698 58500.00000 0 -8810256.745 -18840490.534 -14716909.021 10 0 59698 59400.00000 0 -9225303.801 -20455832.695 -12064610.830 10 0 59698 60300.00000 0 -9688035.115 -21702181.715 -9177110.973 10 0 59698 61200.00000 0 -10141462.835 -22557989.695 -6110676.157 10 0 59698 62100.00000 0 -10526814.750 -23015291.293 -2925087.823 10 0 59698 63000.00000 0 -10786229.280 -23079889.165 317537.321 10 0 59698 63900.00000 0 -10865422.714 -22770972.578 3553974.216 10 0 59698 64800.00000 0 -10716213.664 -22120186.188 6721138.234 10 0 59698 65700.00000 0 -10298795.883 -21170189.607 9757329.672 10 0 59698 66600.00000 0 -9583661.593 -19972770.322 12603447.946 10 0 59698 67500.00000 0 -8553092.828 -18586591.582 15204150.495 10 0 59698 68400.00000 0 -7202157.033 -17074672.127 17508932.901 10 0 59698 69300.00000 0 -5539164.810 -15501705.741 19473108.771 10 0 59698 70200.00000 0 -3585570.698 -13931334.619 21058670.576 10 0 59698 71100.00000 0 -1375321.624 -12423491.825 22235015.472 10 0 59698 72000.00000 0 1046319.020 -11031924.334 22979523.212 10 0 59698 72900.00000 0 3624422.005 -9801999.716 23277976.500 10 0 59698 73800.00000 0 6296448.420 -8768886.894 23124817.339 10 0 59698 74700.00000 0 8994625.643 -7956185.197 22523236.098 10 0 59698 75600.00000 0 11648544.805 -7375056.841 21485093.117 10 0 59698 76500.00000 0 14187872.650 -7023896.741 20030675.564 10 0 59698 77400.00000 0 16545066.399 -6888551.361 18188295.141 10 0 59698 78300.00000 0 18657980.464 -6943075.487 15993734.844 10 0 59698 79200.00000 0 20472258.545 -7150993.823 13489555.485 10 0 59698 80100.00000 0 21943413.430 -7467013.581 10724275.099 10 0 59698 81000.00000 0 23038509.758 -7839115.791 7751436.495 10 0 59698 81900.00000 0 23737381.218 -8210937.515 4628580.100 10 0 59698 82800.00000 0 24033332.575 -8524345.194 1416141.138 10 0 59698 83700.00000 0 23933298.101 -8722091.412 -1823708.531 10 0 59698 84600.00000 0 23457450.190 -8750443.810 -5028252.492 10 0 59698 85500.00000 0 22638274.492 -8561675.887 -8135433.438 10 0 59699 0.00000 0 21519150.055 -8116314.999 -11085045.734 10 0 59699 900.00000 0 20152492.566 -7385052.317 -13819895.960 10 0 59699 1800.00000 0 18597539.143 -6350234.310 -16286905.485 10 0 59699 2700.00000 0 16917864.510 -5006870.914 -18438139.433 10 0 59699 3600.00000 0 15178732.985 -3363116.781 -20231738.291 10 0 59699 4500.00000 0 13444395.811 -1440202.982 -21632735.716 10 0 59699 5400.00000 0 11775446.387 728180.524 -22613746.245 10 0 59699 6300.00000 0 10226343.718 3097028.611 -23155509.196 10 0 59699 7200.00000 0 8843207.698 5611645.765 -23247277.468 10 0 59699 8100.00000 0 7661978.766 8209686.663 -22887042.845 10 0 59699 9000.00000 0 6707019.497 10823529.580 -22081592.268 10 0 59699 9900.00000 0 5990217.482 13382885.203 -20846392.697 10 0 59699 10800.00000 0 5510627.876 15817533.102 -19205305.425 10 0 59699 11700.00000 0 5254671.369 18060072.044 -17190134.061 10 0 59699 12600.00000 0 5196879.805 20048568.999 -14840013.841 10 0 59699 13500.00000 0 5301158.244 21728995.439 -12200653.297 10 0 59699 14400.00000 0 5522510.011 23057347.890 -9323442.556 10 0 59699 15300.00000 0 5809151.156 24001362.662 -6264445.785 10 0 59699 16200.00000 0 6104923.708 24541751.793 -3083297.937 10 0 59699 17100.00000 0 6351903.893 24672907.520 157971.666 10 0 59699 18000.00000 0 6493092.880 24403045.392 3396164.428 10 0 59699 18900.00000 0 6475073.930 23753780.337 6568160.702 10 0 59699 19800.00000 0 6250521.264 22759154.467 9612165.033 10 0 59699 20700.00000 0 5780452.553 21464158.980 12468922.369 10 0 59699 21600.00000 0 5036128.240 19922814.218 15082880.215 10 0 59699 22500.00000 0 4000516.401 18195890.590 17403273.153 10 0 59699 23400.00000 0 2669260.864 16348368.055 19385108.120 10 0 59699 24300.00000 0 1051111.749 14446742.368 20990031.542 10 0 59699 25200.00000 0 -832199.319 12556292.062 22187062.158 10 0 59699 26100.00000 0 -2946633.555 10738420.998 22953176.491 10 0 59699 27000.00000 0 -5247040.054 9048187.233 23273737.134 10 0 59699 27900.00000 0 -7678821.213 7532120.350 23142757.288 10 0 59699 28800.00000 0 -10179998.758 6226416.693 22562998.051 10 0 59699 29700.00000 0 -12683594.533 5155585.636 21545898.198 10 0 59699 30600.00000 0 -15120227.599 4331600.905 20111338.992 10 0 59699 31500.00000 0 -17420820.500 3753589.971 18287249.513 10 0 59699 32400.00000 0 -19519303.586 3408072.152 16109060.588 10 0 59699 33300.00000 0 -21355206.464 3269733.513 13619017.909 10 0 59699 34200.00000 0 -22876030.353 3302704.674 10865367.364 10 0 59699 35100.00000 0 -24039304.259 3462287.008 7901427.714 10 0 59699 36000.00000 0 -24814240.688 3697054.321 4784567.705 10 0 59699 36900.00000 0 -25182922.989 3951241.758 1575106.525 10 0 59699 37800.00000 0 -25140975.553 4167321.725 -1664842.104 10 0 59699 38700.00000 0 -24697689.240 4288658.910 -4872560.840 10 0 59699 39600.00000 0 -23875596.712 4262133.034 -7985932.344 10 0 59699 40500.00000 0 -22709515.035 4040619.165 -10944633.161 10 0 59699 41400.00000 0 -21245094.806 3585221.068 -13691295.386 10 0 59699 42300.00000 0 -19536935.527 2867163.151 -16172614.055 10 0 59699 43200.00000 0 -17646344.940 1869260.411 -18340379.257 10 0 59699 44100.00000 0 -15638834.800 586903.136 -20152413.165 10 0 59699 45000.00000 0 -13581456.763 -971486.947 -21573393.827 10 0 59699 45900.00000 0 -11540088.738 -2784550.578 -22575549.612 10 0 59699 46800.00000 0 -9576784.413 -4818633.633 -23139210.456 10 0 59699 47700.00000 0 -7747296.312 -7028954.404 -23253204.502 10 0 59699 48600.00000 0 -6098875.800 -9361249.314 -22915091.585 10 0 59699 49500.00000 0 -4668442.159 -11753830.752 -22131227.896 10 0 59699 50400.00000 0 -3481197.840 -14139972.929 -20916659.246 10 0 59699 51300.00000 0 -2549748.382 -16450527.478 -19294843.679 10 0 59699 52200.00000 0 -1873764.476 -18616660.236 -17297207.461 10 0 59699 53100.00000 0 -1440200.855 -20572594.753 -14962541.941 10 0 59699 54000.00000 0 -1224062.954 -22258247.175 -12336252.169 10 0 59699 54900.00000 0 -1189688.863 -23621641.140 -9469471.382 10 0 59699 55800.00000 0 -1292491.844 -24621000.036 -6418058.716 10 0 59699 56700.00000 0 -1481088.641 -25226427.507 -3241500.170 10 0 59699 57600.00000 0 -1699721.951 -25421104.404 -1735.270 10 0 59699 58500.00000 0 -1890872.557 -25201951.036 3238066.203 10 0 59699 59400.00000 0 -1997948.284 -24579726.660 6414751.870 10 0 59699 60300.00000 0 -1967933.656 -23578562.332 9466432.737 10 0 59699 61200.00000 0 -1753885.970 -22234947.770 12333701.430 10 0 59699 62100.00000 0 -1317170.419 -20596216.269 14960797.558 10 0 59699 63000.00000 0 -629338.483 -18718593.045 17296696.583 10 0 59699 63900.00000 0 326430.455 -16664890.821 19296100.461 10 0 59699 64800.00000 0 1554385.290 -14501950.869 20920311.015 10 0 59699 65700.00000 0 3045796.692 -12297937.904 22137969.725 10 0 59699 66600.00000 0 4779104.450 -10119602.636 22925650.739 10 0 59699 67500.00000 0 6720611.849 -8029626.251 23268297.107 10 0 59699 68400.00000 0 8825697.418 -6084156.781 23159493.493 10 0 59699 69300.00000 0 11040492.950 -4330638.669 22601571.749 10 0 59699 70200.00000 0 13303957.673 -2806023.900 21605548.866 10 0 59699 71100.00000 0 15550262.424 -1535436.773 20190899.786 10 0 59699 72000.00000 0 17711385.109 -531345.452 18385170.351 10 0 59699 72900.00000 0 19719810.420 206727.754 16223438.400 10 0 59699 73800.00000 0 21511222.732 691947.622 13747633.458 10 0 59699 74700.00000 0 23027081.360 949371.435 11005727.962 10 0 59699 75600.00000 0 24216972.376 1014653.320 8050815.035 10 0 59699 76500.00000 0 25040640.229 932302.716 4940089.828 10 0 59699 77400.00000 0 25469615.429 753570.452 1733753.275 10 0 59699 78300.00000 0 25488371.117 534051.270 -1506141.549 10 0 59699 79200.00000 0 25094960.481 331103.361 -4716879.096 10 0 59699 80100.00000 0 24301108.309 201193.110 -7836284.846 10 0 59699 81000.00000 0 23131752.365 197276.514 -10803920.142 10 0 59699 81900.00000 0 21624052.879 366327.373 -13562245.946 10 0 59699 82800.00000 0 19825910.423 747116.486 -16057733.380 10 0 59699 83700.00000 0 17794052.832 1368335.922 -18241900.011 10 0 59699 84600.00000 0 15591769.610 2247148.367 -20072252.016 10 0 59699 85500.00000 0 13286387.152 3388224.028 -21513113.950 10 0 59700 0.00000 0 10946589.090 4783307.482 -22536329.842 10 0 59700 900.00000 0 8639691.303 6411335.792 -23121822.097 10 0 59700 1800.00000 0 6428987.713 8239103.570 -23257995.387 10 0 59700 2700.00000 0 4371272.998 10222452.316 -22941978.685 10 0 59700 3600.00000 0 2514648.646 12307934.895 -22179698.149 10 0 59700 4500.00000 0 896702.960 14434888.329 -20985778.757 10 0 59700 5400.00000 0 -456858.371 16537829.710 -19383275.181 10 0 59700 6300.00000 0 -1533073.352 18549076.006 -17403235.762 10 0 59700 7200.00000 0 -2332039.869 20401478.310 -15084106.920 10 0 59700 8100.00000 0 -2866673.543 22031155.661 -12470988.723 10 0 59700 9000.00000 0 -3161917.542 23380112.902 -9614755.563 10 0 59700 9900.00000 0 -3253438.152 24398631.276 -6571059.169 10 0 59700 10800.00000 0 -3185862.199 25047329.860 -3399233.844 10 0 59700 11700.00000 0 -3010632.294 25298809.646 -161126.258 10 0 59700 12600.00000 0 -2783572.510 25138809.839 3080125.900 10 0 59700 13500.00000 0 -2562269.726 24566826.955 6261340.947 10 0 59700 14400.00000 0 -2403383.828 23596170.422 9320539.827 10 0 59700 15300.00000 0 -2360002.862 22253452.742 12198166.266 10 0 59700 16200.00000 0 -2479156.993 20577536.618 14838255.279 10 0 59700 17100.00000 0 -2799597.955 18617984.605 17189526.321 10 0 59700 18000.00000 0 -3349938.713 16433077.972 19206379.240 10 0 59700 18900.00000 0 -4147232.279 14087489.337 20849773.835 10 0 59700 19800.00000 0 -5196049.430 11649707.766 22087976.588 10 0 59700 20700.00000 0 -6488093.616 9189324.806 22897161.155 10 0 59700 21600.00000 0 -8002368.477 6774294.903 23261852.514 10 0 59700 22500.00000 0 -9705890.162 4468283.884 23175207.801 10 0 59700 23400.00000 0 -11554913.918 2328214.799 22639130.115 10 0 59700 24300.00000 0 -13496623.228 402111.418 21664214.616 10 0 59700 25200.00000 0 -15471210.921 -1272673.182 20269529.297 10 0 59700 26100.00000 0 -17414265.663 -2670771.723 18482235.562 10 0 59700 27000.00000 0 -19259365.002 -3779609.462 16337056.498 10 0 59700 27900.00000 0 -20940767.862 -4599671.468 13875603.197 10 0 59700 28800.00000 0 -22396095.318 -5144221.478 11145571.926 10 0 59700 29700.00000 0 -23568889.138 -5438485.918 8199827.102 10 0 59700 30600.00000 0 -24410942.472 -5518338.555 5095386.948 10 0 59700 31500.00000 0 -24884306.351 -5428541.649 1892330.637 10 0 59700 32400.00000 0 -24962888.885 -5220617.791 -1347352.980 10 0 59700 33300.00000 0 -24633580.566 -4950441.766 -4560953.758 10 0 59700 34200.00000 0 -23896858.558 -4675653.427 -7686243.551 10 0 59700 35100.00000 0 -22766844.119 -4453000.077 -10662671.980 10 0 59700 36000.00000 0 -21270809.829 -4335719.932 -13432532.181 10 0 59700 36900.00000 0 -19448155.951 -4371076.693 -15942074.436 10 0 59700 37800.00000 0 -17348897.202 -4598149.264 -18142546.537 10 0 59700 38700.00000 0 -15031721.448 -5045970.256 -19991140.985 10 0 59700 39600.00000 0 -12561699.733 -5732092.656 -21451830.640 10 0 59700 40500.00000 0 -10007741.578 -6661646.498 -22496076.527 10 0 59700 41400.00000 0 -7439900.213 -7826927.123 -23103393.702 10 0 59700 42300.00000 0 -4926639.052 -9207534.585 -23261763.486 10 0 59700 43200.00000 0 -2532172.513 -10771060.807 -22967883.295 10 0 59700 44100.00000 0 -313991.608 -12474298.141 -22227248.001 10 0 59700 45000.00000 0 1679322.491 -14264920.805 -21054060.047 10 0 59700 45900.00000 0 3409905.489 -16083570.605 -19470968.654 10 0 59700 46800.00000 0 4851961.725 -17866260.723 -17508641.857 10 0 59700 47700.00000 0 5992603.622 -19546997.351 -15205178.548 10 0 59700 48600.00000 0 6832143.376 -21060509.065 -12605371.042 10 0 59700 49500.00000 0 7383824.635 -22344968.597 -9759832.030 10 0 59700 50400.00000 0 7673005.762 -23344591.321 -6724002.925 10 0 59700 51300.00000 0 7735829.949 -24011999.599 -3557063.431 10 0 59700 52200.00000 0 7617439.651 -24310251.742 -320764.515 10 0 59700 53100.00000 0 7369812.494 -24214448.569 2921790.985 10 0 59700 54000.00000 0 7049312.365 -23712848.650 6107394.697 10 0 59700 54900.00000 0 6714061.579 -22807444.496 9173979.944 10 0 59700 55800.00000 0 6421247.648 -21513975.277 12061843.787 10 0 59700 56700.00000 0 6224480.704 -19861375.951 14714818.638 10 0 59700 57600.00000 0 6171315.052 -17890686.833 17081369.654 10 0 59700 58500.00000 0 6301040.723 -15653470.646 19115595.967 10 0 59700 59400.00000 0 6642838.843 -13209804.763 20778116.407 10 0 59700 60300.00000 0 7214378.605 -10625933.840 22036823.150 10 0 59700 61200.00000 0 8020914.363 -7971681.917 22867489.710 10 0 59700 62100.00000 0 9054920.004 -5317732.308 23254223.000 10 0 59700 63000.00000 0 10296274.921 -2732888.332 23189752.351 10 0 59700 63900.00000 0 11712992.787 -281428.101 22675551.566 10 0 59700 64800.00000 0 13262461.800 1979338.241 21721793.243 10 0 59700 65700.00000 0 14893144.066 4001209.332 20347137.532 10 0 59700 66600.00000 0 16546662.914 5746844.825 18578360.377 10 0 59700 67500.00000 0 18160191.270 7191058.817 16449828.984 10 0 59700 68400.00000 0 19669041.985 8321603.257 14002834.756 10 0 59700 69300.00000 0 21009352.797 9139411.012 11284796.411 10 0 59700 70200.00000 0 22120754.844 9658290.579 8348348.104 10 0 59700 71100.00000 0 22948914.291 9904086.772 5250329.402 10 0 59700 72000.00000 0 23447841.687 9913343.610 2050695.785 10 0 59700 72900.00000 0 23581873.212 9731526.070 -1188630.237 10 0 59700 73800.00000 0 23327241.211 9410875.523 -4404946.181 10 0 59700 74700.00000 0 22673168.214 9007988.750 -7535972.634 10 0 59700 75600.00000 0 21622438.141 8581222.029 -10521049.860 10 0 59700 76500.00000 0 20191419.795 8188029.052 -13302305.502 10 0 59700 77400.00000 0 18409540.330 7882344.381 -15825771.237 10 0 59700 78300.00000 0 16318229.023 7712122.459 -18042427.201 10 0 59700 79200.00000 0 13969373.585 7717135.943 -19909154.199 10 0 59700 80100.00000 0 11423351.515 7927126.621 -21389575.244 10 0 59700 81000.00000 0 8746716.690 8360387.705 -22454770.016 10 0 59700 81900.00000 0 6009635.801 9022838.612 -23083847.981 10 0 59700 82800.00000 0 3283180.050 9907632.922 -23264368.412 10 0 59700 83700.00000 0 636583.726 10995318.096 -22992598.321 10 0 59700 84600.00000 0 -1865416.927 12254542.463 -22273602.165 10 0 59700 85500.00000 0 -4165053.912 13643281.886 -21121160.334 99